Weather History for Del Bajio, Mexico

Change the Weather History Date:

Sunday, April 29, 2012

  Actual Average Record
Temperature  
Mean Temperature 76 °F -  
Max Temperature 95 °F 88 °F 95 °F (2005)
Min Temperature 57 °F 54 °F 48 °F (1997)
Cooling Degree Days 11    
Growing Degree Days 26 (Base 50)    
Moisture  
Dew Point 33 °F    
Average Humidity 23    
Maximum Humidity 44    
Minimum Humidity 9    
Precipitation  
Precipitation 0.00 in - - ()
Sea Level Pressure  
Sea Level Pressure 29.94 in    
Wind  
Wind Speed 3 mph ()    
Max Wind Speed 14 mph    
Max Gust Speed -    
Visibility 8.3 miles    
Events      
Averages and records for this station are not official NWS values.
T = Trace of Precipitation, MM = Missing Value Source: Averaged Metar Reports

Daily Weather History Graph

Daily Weather History Graph

Search for Another Location

Airport:

Trip Planner

Search our weather history database for the weather conditions in past years. The results will help you decide how hot, cold, wet, or windy it might be!

Date:

Astronomy

Apr. 29, 2012 Rise Set
Actual Time 7:16 AM CDT 8:10 PM CDT
Civil Twilight 6:53 AM CDT 8:33 PM CDT
Nautical Twilight 6:25 AM CDT 9:00 PM CDT
Astronomical Twilight 5:58 AM CDT 9:28 PM CDT
Moon 1:56 PM CDT 2:12 AM CDT
Length of Visible Light 13h 40m
Length of Day
12h 53m
First Quarter, 53% of the Moon is Illuminated
Apr 29
First Quarter
May 5
Full
May 12
Last Quarter
May 20
New
May 28
First Quarter

Hourly Weather History & Observations

Time (CDT) Temp. Dew Point Humidity Pressure Visibility Wind Dir Wind Speed Gust Speed Precip Events Conditions
12:40 AM 71.6 °F 30.2 °F 22% 29.65 in 8.0 mi WSW 6.9 mph - N/A   Overcast
2:44 AM 64.4 °F 32.0 °F 30% 30.13 in 8.0 mi Calm Calm - N/A   Overcast
3:50 AM 60.8 °F 32.0 °F 34% 29.65 in 8.0 mi Calm Calm - N/A   Overcast
4:45 AM 59.0 °F 32.0 °F 36% 30.11 in 8.0 mi Calm Calm - N/A   Overcast
5:44 AM 57.2 °F 32.0 °F 38% 30.11 in 8.0 mi Calm Calm - N/A   Overcast
6:49 AM 57.2 °F 35.6 °F 44% 29.70 in 8.0 mi Calm Calm - N/A   Mostly Cloudy
8:46 AM 64.4 °F 39.2 °F 40% 30.12 in 6.0 mi Calm Calm - N/A   Mostly Cloudy
9:51 AM 71.6 °F 44.6 °F 38% 29.76 in 7.0 mi Calm Calm - N/A   Mostly Cloudy
10:45 AM 77.0 °F 42.8 °F 29% 30.21 in 7.0 mi Calm Calm - N/A   Mostly Cloudy
11:49 AM 82.4 °F 39.2 °F 21% 30.18 in 7.0 mi Calm Calm - N/A   Mostly Cloudy
12:50 PM 86.0 °F 35.6 °F 17% 29.66 in 8.0 mi West 9.2 mph - N/A   Mostly Cloudy
1:41 PM 87.8 °F 33.8 °F 15% 30.12 in 8.0 mi West 13.8 mph - N/A   Mostly Cloudy
2:47 PM 91.4 °F 30.2 °F 11% 30.09 in 10.0 mi West 3.5 mph - N/A   Mostly Cloudy
3:51 PM 93.2 °F 32.0 °F 11% 29.56 in 10.0 mi SSE 3.5 mph - N/A   Scattered Clouds
4:48 PM 95.0 °F 30.2 °F 10% 30.03 in 10.0 mi SSW 8.1 mph - N/A   Mostly Cloudy
5:58 PM 93.2 °F 30.2 °F 11% 30.03 in 10.0 mi WNW 9.2 mph - N/A   Mostly Cloudy
6:46 PM 91.4 °F 24.8 °F 9% 29.55 in 10.0 mi West 10.4 mph - N/A   Mostly Cloudy
7:46 PM 87.8 °F 28.4 °F 12% 30.03 in 10.0 mi West 4.6 mph - N/A   Mostly Cloudy
8:53 PM 80.6 °F 28.4 °F 15% 30.06 in 8.0 mi Calm Calm - N/A   Mostly Cloudy
9:44 PM 75.2 °F 30.2 °F 19% 29.64 in 8.0 mi SW 5.8 mph - N/A   Scattered Clouds
10:46 PM 73.4 °F 30.2 °F 20% 30.12 in 8.0 mi WNW 5.8 mph - N/A   Scattered Clouds
11:41 PM 69.8 °F 28.4 °F 21% 30.12 in 8.0 mi Calm Calm - N/A   Scattered Clouds